TimePDT,TemperatureF,Dew PointF,Humidity,Sea Level PressureIn,VisibilityMPH,Wind Direction,Wind SpeedMPH,Gust SpeedMPH,PrecipitationIn,Events,Conditions,WindDirDegrees,DateUTC
12:15 AM,57.2,37.4,48,30.20,10.0,Calm,Calm,-,N/A,,Clear,0,2013-07-11 07:15:00
12:35 AM,55.4,37.4,51,30.20,10.0,Calm,Calm,-,N/A,,Clear,0,2013-07-11 07:35:00
12:55 AM,53.6,35.6,51,30.19,10.0,Calm,Calm,-,N/A,,Clear,0,2013-07-11 07:55:00
1:15 AM,53.6,35.6,51,30.19,10.0,Calm,Calm,-,N/A,,Partly Cloudy,0,2013-07-11 08:15:00
1:35 AM,53.6,35.6,51,30.19,10.0,Calm,Calm,-,N/A,,Partly Cloudy,0,2013-07-11 08:35:00
1:55 AM,53.6,37.4,54,30.19,10.0,Calm,Calm,-,N/A,,Clear,0,2013-07-11 08:55:00
2:15 AM,53.6,35.6,51,30.18,10.0,Calm,Calm,-,N/A,,Clear,0,2013-07-11 09:15:00
2:35 AM,50.0,35.6,58,30.19,10.0,Calm,Calm,-,N/A,,Clear,0,2013-07-11 09:35:00
2:55 AM,50.0,37.4,62,30.18,10.0,Calm,Calm,-,N/A,,Partly Cloudy,0,2013-07-11 09:55:00
3:15 AM,50.0,35.6,58,30.18,10.0,Calm,Calm,-,N/A,,Partly Cloudy,0,2013-07-11 10:15:00
3:35 AM,48.2,35.6,62,30.18,10.0,Calm,Calm,-,N/A,,Clear,0,2013-07-11 10:35:00
3:55 AM,48.2,35.6,62,30.18,10.0,SSE,3.5,-,N/A,,Partly Cloudy,150,2013-07-11 10:55:00
4:15 AM,48.2,35.6,62,30.18,10.0,Calm,Calm,-,N/A,,Scattered Clouds,0,2013-07-11 11:15:00
4:35 AM,50.0,35.6,58,30.18,10.0,Calm,Calm,-,N/A,,Mostly Cloudy,0,2013-07-11 11:35:00
4:55 AM,48.2,35.6,62,30.18,10.0,Calm,Calm,-,N/A,,Scattered Clouds,0,2013-07-11 11:55:00
5:15 AM,48.2,37.4,66,30.19,10.0,Calm,Calm,-,N/A,,Partly Cloudy,0,2013-07-11 12:15:00
5:35 AM,46.4,37.4,71,30.19,10.0,Calm,Calm,-,N/A,,Clear,0,2013-07-11 12:35:00
5:55 AM,46.4,37.4,71,30.19,10.0,Calm,Calm,-,N/A,,Partly Cloudy,0,2013-07-11 12:55:00
6:15 AM,46.4,37.4,71,30.18,10.0,WSW,3.5,-,N/A,,Partly Cloudy,240,2013-07-11 13:15:00
6:35 AM,46.4,37.4,71,30.18,10.0,Calm,Calm,-,N/A,,Partly Cloudy,0,2013-07-11 13:35:00
6:45 AM,44.6,35.6,71,30.18,10.0,Calm,Calm,-,N/A,,Scattered Clouds,0,2013-07-11 13:45:00
7:45 AM,50.0,39.2,66,30.18,10.0,Calm,Calm,-,N/A,,Scattered Clouds,0,2013-07-11 14:45:00
8:45 AM,59.0,39.2,48,30.17,10.0,North,3.5,-,N/A,,Scattered Clouds,10,2013-07-11 15:45:00
9:45 AM,71.6,37.4,29,30.15,10.0,SW,9.2,-,N/A,,Scattered Clouds,220,2013-07-11 16:45:00
10:45 AM,75.2,33.8,22,30.16,10.0,SSW,13.8,23.0,N/A,,Scattered Clouds,200,2013-07-11 17:45:00
11:55 AM,75.2,32.0,21,30.16,10.0,SW,17.3,27.6,N/A,,Partly Cloudy,220,2013-07-11 18:55:00
12:45 PM,77.0,26.6,16,30.16,10.0,SW,20.7,31.1,N/A,,Partly Cloudy,220,2013-07-11 19:45:00
1:45 PM,77.0,28.4,17,30.16,10.0,SW,15.0,21.9,N/A,,Partly Cloudy,220,2013-07-11 20:45:00
2:45 PM,77.0,30.2,18,30.15,10.0,WSW,17.3,24.2,N/A,,Clear,240,2013-07-11 21:45:00
3:45 PM,77.0,32.0,19,30.14,19.0,SW,16.1,25.3,N/A,,Clear,230,2013-07-11 22:45:00
4:45 PM,75.2,26.6,17,30.13,10.0,West,13.8,24.2,N/A,,Clear,270,2013-07-11 23:45:00
5:45 PM,75.2,23.0,14,30.13,10.0,West,17.3,23.0,N/A,,Clear,260,2013-07-12 00:45:00
5:55 PM,73.4,21.2,14,30.13,10.0,West,18.4,23.0,N/A,,Clear,260,2013-07-12 00:55:00
6:15 PM,73.4,24.8,16,30.13,10.0,West,10.4,20.7,N/A,,Clear,260,2013-07-12 01:15:00
6:35 PM,73.4,23.0,15,30.13,10.0,WSW,15.0,19.6,N/A,,Clear,240,2013-07-12 01:35:00
6:55 PM,71.6,23.0,16,30.13,10.0,SW,8.1,19.6,N/A,,Clear,230,2013-07-12 01:55:00
7:15 PM,71.6,24.8,17,30.13,10.0,West,12.7,19.6,N/A,,Clear,260,2013-07-12 02:15:00
7:35 PM,69.8,24.8,18,30.14,10.0,SW,5.8,-,N/A,,Clear,230,2013-07-12 02:35:00
7:55 PM,68.0,24.8,20,30.14,10.0,South,3.5,-,N/A,,Clear,170,2013-07-12 02:55:00
8:15 PM,64.4,24.8,22,30.14,10.0,WSW,5.8,-,N/A,,Clear,240,2013-07-12 03:15:00
8:35 PM,64.4,24.8,22,30.14,10.0,Calm,Calm,-,N/A,,Clear,0,2013-07-12 03:35:00
8:55 PM,62.6,24.8,24,30.15,10.0,SW,3.5,-,N/A,,Clear,230,2013-07-12 03:55:00
9:15 PM,55.4,26.6,33,30.15,10.0,Calm,Calm,-,N/A,,Clear,0,2013-07-12 04:15:00
9:35 PM,53.6,26.6,35,30.16,10.0,SSW,4.6,-,N/A,,Clear,210,2013-07-12 04:35:00
9:55 PM,53.6,26.6,35,30.16,10.0,SW,4.6,-,N/A,,Clear,230,2013-07-12 04:55:00
10:15 PM,50.0,26.6,40,30.17,10.0,NNE,3.5,-,N/A,,Clear,20,2013-07-12 05:15:00
10:35 PM,51.8,26.6,38,30.17,10.0,NW,3.5,-,N/A,,Clear,320,2013-07-12 05:35:00
10:55 PM,50.0,26.6,40,30.17,10.0,SSE,3.5,-,N/A,,Clear,160,2013-07-12 05:55:00
11:15 PM,46.4,26.6,46,30.17,10.0,NE,4.6,-,N/A,,Clear,40,2013-07-12 06:15:00
11:35 PM,48.2,26.6,43,30.17,10.0,WSW,4.6,-,N/A,,Clear,250,2013-07-12 06:35:00
11:55 PM,44.6,26.6,49,30.17,10.0,ENE,3.5,-,N/A,,Clear,60,2013-07-12 06:55:00